Flag for U.S.A. Weather past 2 weeks in Washington DC, District of Columbia, U.S.A.

Now
74 °F

Passing clouds.


Feels Like: 75 °F
Forecast: 71 / 89 °F
Wind: No wind

Location: Reagan National Airport

Current Time: Aug 20, 2014 at 10:38:59 PM

Latest Report: Aug 20, 2014 at 9:52 PM


Visibility: 10 mi

Pressure: 29.99 "Hg

Humidity: 76%

Dew point: 66 °F

Location of Washington DCLocation

Historic Weather in Washington DC — Graph

°F

Washington DC temperature yesterday

Maximum temperature yesterday: 85 °F (at 2:52 PM)
Minimum temperature yesterday: 74 °F (at 3:52 AM)
Average temperature yesterday: 79 °F

Past Weeks' High & Low Weather Summary

 TemperatureHumidityPressure
High89 °F (Aug 20, 2:52 PM)89% (Aug 12, 10:59 AM)30.15 "Hg (Aug 12, 10:59 AM)
Low63 °F (Aug 15, 5:52 AM)27% (Aug 15, 2:52 PM)29.75 "Hg (Aug 13, 4:52 AM)
Average77 °F58%29.97 "Hg
* Reported Aug 5 8:52 PM — Aug 20 8:52 PM, Washington DC, Weather by CustomWeather, © 2014

Note: Actual official high and low records may vary slightly from our data, if they occured in-between our weather recording intervals... More about our weather records

Advertising

Washington DC weather history for previous 24 hours

 ConditionsComfort  
Time TempWeatherWind HumidityBarometerVisibility
8:52 PM
Aug 20
76 °FScattered clouds.3 mph62%29.98 "Hg10 mi
7:52 PM75 °FBroken clouds.5 mph66%29.96 "Hg10 mi
6:52 PM76 °FBroken clouds.12 mph74%29.97 "Hg10 mi
5:57 PM75 °FThunderstorms. Mostly cloudy.No wind69%30.00 "Hg7 mi
4:52 PM84 °FPartly sunny.7 mph45%29.96 "Hg10 mi
3:52 PM86 °FPartly sunny.14 mph40%29.95 "Hg10 mi
2:52 PM89 °FScattered clouds.13 mph39%29.95 "Hg10 mi
1:52 PM87 °FScattered clouds.13 mph45%29.95 "Hg10 mi
12:52 PM85 °FScattered clouds.9 mph50%29.98 "Hg10 mi
11:52 AM82 °FPartly sunny.6 mph55%30.00 "Hg10 mi
10:52 AM80 °FPartly sunny.7 mph60%30.00 "Hg10 mi
9:52 AM79 °FBroken clouds.7 mph65%30.00 "Hg10 mi
8:52 AM77 °FPartly sunny.7 mph66%29.98 "Hg10 mi
7:52 AM75 °FBroken clouds.6 mph71%29.97 "Hg10 mi
6:52 AM73 °FPassing clouds.5 mph74%29.96 "Hg10 mi
5:52 AM74 °FPartly cloudy.No wind69%29.94 "Hg10 mi
4:52 AM73 °FPassing clouds.7 mph69%29.92 "Hg10 mi
3:52 AM73 °FPassing clouds.3 mph71%29.92 "Hg10 mi
2:52 AM74 °FPassing clouds.3 mph71%29.92 "Hg10 mi
1:58 AM73 °FPartly cloudy.No wind74%29.93 "Hg10 mi
12:52 AM76 °FPassing clouds.6 mph72%29.93 "Hg10 mi
11:52 PM
Aug 19
77 °FPassing clouds.5 mph69%29.93 "Hg10 mi
10:52 PM79 °FPassing clouds.6 mph67%29.91 "Hg10 mi
Weather by CustomWeather, © 2014

See weather overviewHow to use our weather pages